This is the latest recevied weather packets stored in our database for station/object ALAKES. If no packets are shown the sender has not sent any weather packets the latest 10 day(s).
| Time | Temp. | Humidity | Pressure | Rain* | Wind** | Luminosity | Snow |
|---|---|---|---|---|---|---|---|
| 1787996840 | 7.22° C | 66% | - | 0 mm | - | - | - |
| 1787996744 | 7.22° C | 66% | - | 0 mm | - | - | - |
| 1787996123 | 7.22° C | 68% | - | 0 mm | - | - | - |
| 1787995500 | 7.78° C | 67% | - | 0 mm | - | - | - |
| 1787994876 | 7.78° C | 65% | - | 0 mm | - | - | - |
| 1787994256 | 8.33° C | 65% | - | 0 mm | - | - | - |
| 1787993634 | 8.33° C | 64% | - | 0 mm | - | - | - |
| 1787993010 | 8.89° C | 61% | - | 0 mm | - | - | - |
| 1787992390 | 8.89° C | 60% | - | 0 mm | - | - | - |
| 1787991902 | 9.44° C | 58% | - | 0 mm | - | - | - |
| 1787991766 | 9.44° C | 58% | - | 0 mm | - | - | - |
| 1787991141 | 10° C | 59% | - | 0 mm | - | - | - |
| 1787990521 | 9.44° C | 61% | - | 0 mm | - | - | - |
| 1787989891 | 8.89° C | 62% | - | 0 mm | - | - | - |
| 1787989273 | 8.89° C | 65% | - | 0 mm | - | - | - |
| 1787988653 | 8.89° C | 65% | - | 0 mm | - | - | - |
| 1787988021 | 8.89° C | 66% | - | 0 mm | - | - | - |
| 1787987397 | 8.89° C | 66% | - | 0 mm | - | - | - |
| 1787986775 | 8.89° C | 65% | - | 0 mm | - | - | - |
| 1787986148 | 8.89° C | 65% | - | 0 mm | - | - | - |
| 1787985526 | 9.44° C | 65% | - | 0 mm | - | - | - |
| 1787985000 | 9.44° C | 64% | - | 0 mm | - | - | - |
| 1787984902 | 9.44° C | 64% | - | 0 mm | - | - | - |
| 1787984272 | 9.44° C | 64% | - | 0 mm | - | - | - |
| 1787983636 | 9.44° C | 62% | - | 0 mm | - | - | - |
* Rain latest 24 hours (hover to see other rain measurements)
** Current wind speed in m/s (hover to see current wind gust speed)